Flag for Canada Weather past 2 weeks in MD of Lunenburg, Nova Scotia, Canada

Now
18 °F

Cold.


Feels Like: 6 °F
Forecast: 5 / 23 °F
Wind: 12 mph from Northwest

Location: McNabs Island - AUT

Current Time: Feb 1, 2015 at 9:29:53 AM

Latest Report: Feb 1, 2015 at 9:00 AM


Visibility: N/A

Pressure: 29.58 "Hg

Humidity: 87%

Dew point: 15 °F

Location of MD of LunenburgLocation

Historic Weather in MD of Lunenburg — Graph

°F

MD of Lunenburg temperature yesterday

Maximum temperature yesterday: 41 °F (at 10:00 AM)
Minimum temperature yesterday: 27 °F (at 11:00 PM)
Average temperature yesterday: 33 °F

Past Weeks' High & Low Weather Summary

 TemperatureHumidityPressure
High48 °F (Jan 25, 2:00 AM)100% (Jan 22, 7:00 PM)30.42 "Hg (Jan 22, 7:00 PM)
Low8 °F (Jan 17, 8:00 AM)38% (Jan 26, 4:00 PM)28.56 "Hg (Jan 25, 3:00 AM)
Average27 °F82%29.81 "Hg
* Reported Jan 17 8:00 AM — Feb 1 8:00 AM, MD of Lunenburg, Weather by CustomWeather, © 2014

Note: Actual official high and low records may vary slightly from our data, if they occured in-between our weather recording intervals... More about our weather records

Advertising

MD of Lunenburg weather history for previous 24 hours

 ConditionsComfort  
Time TempWeatherWind HumidityBarometerVisibility
8:00 AM
Feb 1
18 °FCold.13 mph85%29.55 "HgN/A
7:00 AM20 °FCold.13 mph90%29.50 "HgN/A
6:00 AM21 °FCold.12 mph90%29.46 "HgN/A
5:00 AM22 °FCold.16 mph91%29.43 "HgN/A
4:00 AM22 °FCold.17 mph95%29.40 "HgN/A
3:00 AM24 °FCold.14 mph100%29.38 "HgN/A
2:00 AM24 °FCold.15 mph97%29.36 "HgN/A
1:00 AM25 °FChilly.14 mph97%29.34 "HgN/A
12:00 AM26 °FChilly.14 mph98%29.32 "HgN/A
11:00 PM
Jan 31
27 °FChilly.13 mph98%29.30 "HgN/A
10:00 PM29 °FChilly.9 mph100%29.27 "HgN/A
9:00 PM30 °FChilly.9 mph99%29.26 "HgN/A
8:00 PM31 °FChilly.8 mph99%29.24 "HgN/A
7:00 PM32 °FChilly.8 mph100%29.23 "HgN/A
6:00 PM32 °FChilly.7 mph100%29.23 "HgN/A
5:00 PM33 °FChilly.6 mph99%29.21 "HgN/A
4:00 PM34 °FChilly.6 mph97%29.20 "HgN/A
3:00 PM35 °FChilly.6 mph93%29.18 "HgN/A
2:00 PM36 °FChilly.3 mph92%29.18 "HgN/A
1:00 PM36 °FChilly.10 mph96%29.14 "HgN/A
12:00 PM36 °FChilly.7 mph98%29.18 "HgN/A
11:00 AM35 °FChilly.5 mph100%29.18 "HgN/A
10:00 AM41 °FQuite cool.13 mph99%29.18 "HgN/A
9:00 AM36 °FChilly.17 mph98%29.20 "HgN/A
Weather by CustomWeather, © 2014

See weather overviewHow to use our weather pages